unixtime,lat,lon,depth,sci_water_pressure
1562185234.28564, 47.943273333299999, -63.987418333299999, 6.0699535368094315, 0.564
1562185236.29147, 47.943273333299999, -63.987418333299999, 6.4790477823945585, 0.6
1562185238.3085, 47.943273333299999, -63.987418333299999, 6.8904262870954343, 0.651
1562185240.31372, 47.943273333299999, -63.987418333299999, 7.2993960985210498, 0.709
1562185242.32474, 47.943273333299999, -63.987418333299999, 7.7095488367924769, 0.754
1562185244.34454, 47.943273333299999, -63.987418333299999, 8.121492328011275, 0.804
1562185246.35623, 47.943273333299999, -63.987418333299999, 8.5317817055903316, 0.856
1562185248.43961, 47.943273333299999, -63.987418333299999, 8.9566924616076289, 0.897
1562185250.45282, 47.943273333299999, -63.987418333299999, 9.3672918791245703, 0.928
1562185252.46243, 47.943273333299999, -63.987418333299999, 9.7771570427108259, 0.97
1562185254.47946, 47.943273333299999, -63.987418333299999, 10.188535547411703, 1.01
1562185256.49112, 47.943273333299999, -63.987418333299999, 10.598818846729746, 1.037
1562185258.50531, 47.943273333299999, -63.987418333299999, 11.000829970270139, 1.072
1562185260.51575, 47.943273333299999, -63.987418333299999, 11.325713096067062, 1.114
1562185262.52914, 47.943273333299999, -63.987418333299999, 11.651072967002449, 1.139
1562185264.54004, 47.943273333299999, -63.987418333299999, 11.97603045178735, 1.174
1562185266.5535, 47.943273333299999, -63.987418333299999, 12.301401611418839, 1.217
1562185268.56396, 47.943273333299999, -63.987418333299999, 12.626288012093472, 1.24
1562185270.5773, 47.943273333299999, -63.987418333299999, 12.95163979215452, 1.274
1562185272.60065, 47.943273333299999, -63.987418333299999, 13.278609169163882, 1.312
1562185274.61438, 47.943273333299999, -63.987418333299999, 13.604023942460859, 1.334
1562185276.62375, 47.943273333299999, -63.987418333299999, 13.928734193242727, 1.372
1562185278.63672, 47.943273333299999, -63.987418333299999, 14.254026177889608, 1.405
1562185280.64621, 47.943273333299999, -63.987418333299999, 14.578755808241919, 1.427
1562185282.65018, 47.943273333299999, -63.987418333299999, 14.902593438962278, 1.467
1562185284.65988, 47.943273333299999, -63.987418333299999, 15.227356973930867, 1.493
1562185286.67316, 47.943273333299999, -63.987418333299999, 15.552699083470682, 1.519
1562185288.68549, 47.943273333299999, -63.987418333299999, 15.877887620509936, 1.562
1562185290.70395, 47.943273333299999, -63.987418333299999, 16.204066788792137, 1.59
1562185292.71368, 47.943273333299999, -63.987418333299999, 16.528835216813302, 1.622
1562185294.72726, 47.943273333299999, -63.987418333299999, 16.854225794543208, 1.668
1562185296.73615, 47.943273333299999, -63.987418333299999, 17.178858449987359, 1.693
1562185298.74973, 47.943273333299999, -63.987418333299999, 17.504249027717265, 1.737
1562185300.75818, 47.943273333299999, -63.987418333299999, 17.828810560523177, 1.768
1562185302.77179, 47.943273333299999, -63.987418333299999, 18.154205992777687, 1.802
1562185304.77945, 47.943273333299999, -63.987418333299999, 18.478639882408899, 1.842
1562185306.79321, 47.943273333299999, -63.987418333299999, 18.813543617634505, 1.863
1562185308.80182, 47.943273333299999, -63.987418333299999, 19.152113671104317, 1.905
1562185310.81549, 47.943273333299999, -63.987418333299999, 19.491536627862533, 1.937
1562185312.82446, 47.943273333299999, -63.987418333299999, 19.83016736474023, 1.966
1562185314.83813, 47.943273333299999, -63.987418333299999, 20.169590321498447, 2.011
1562185316.84705, 47.943273333299999, -63.987418333299999, 20.508212618961799, 2.036
1562185318.86047, 47.943273333299999, -63.987418333299999, 20.847593459023685, 2.074
1562185320.86938, 47.943273333299999, -63.987418333299999, 21.186214068604173, 2.113
1562185322.88226, 47.943273333299999, -63.987418333299999, 21.525503883554233, 2.136
1562185324.89206, 47.943273333299999, -63.987418333299999, 21.864274513771559, 2.181
1562185326.90485, 47.943273333299999, -63.987418333299999, 22.203549137775806, 2.204
1562185328.91428, 47.943273333299999, -63.987418333299999, 22.542257396702379, 2.24
1562185330.92722, 47.943273333299999, -63.987418333299999, 22.881557338949648, 2.267
1562185332.93716, 47.943273333299999, -63.987418333299999, 23.220351559339441, 2.301
1562185334.95007, 47.943273333299999, -63.987418333299999, 23.55964639775042, 2.329
1562185336.95987, 47.943273333299999, -63.987418333299999, 23.898417068155432, 2.363
1562185338.97275, 47.943273333299999, -63.987418333299999, 24.237706842917806, 2.397
1562185340.99548, 47.943273333299999, -63.987418333299999, 24.57865697198261, 2.426
1562185343.00781, 47.943273333299999, -63.987418333299999, 24.917854073937981, 2.464
1562185345.0177, 47.943273333299999, -63.987418333299999, 25.256639854913431, 2.487
1562185347.03052, 47.943273333299999, -63.987418333299999, 25.595919542566282, 2.53
1562185349.05521, 47.943273333299999, -63.987418333299999, 25.937200054608702, 2.552
1562185350.15689, 47.943273333299999, -63.987418333299999, 26.122898516512929, 2.594
1562185352.16104, 47.943273333299999, -63.987418333299999, 26.460716819103371, 2.614
1562185354.18094, 47.943273333299999, -63.987418333299999, 26.79662082685584, 2.659
1562185356.18979, 47.943273333299999, -63.987418333299999, 27.130344492184321, 2.68
1562185358.20999, 47.943273333299999, -63.987418333299999, 27.465953681836393, 2.724
1562185360.22723, 47.943273333299999, -63.987418333299999, 27.801071141954228, 2.745
1562185362.24271, 47.943273333299999, -63.987418333299999, 28.135896218067089, 2.79
1562185364.26569, 47.943273333299999, -63.987418333299999, 28.471967233443625, 2.815
1562185366.27756, 47.943273333299999, -63.987418333299999, 28.806192569837805, 2.857
1562185368.29416, 47.943273333299999, -63.987418333299999, 29.141203683294385, 2.881
1562185370.30389, 47.943273333299999, -63.987418333299999, 29.475073540625356, 2.92
1562185372.3053, 47.943273333299999, -63.987418333299999, 29.807561208221621, 2.948
1562185374.31024, 47.943273333299999, -63.987418333299999, 30.14063530735103, 2.983
1562185376.31223, 47.943273333299999, -63.987418333299999, 30.473219340469392, 3.017
1562185378.32532, 47.943273333299999, -63.987418333299999, 30.807647349439222, 3.051
1562185380.34283, 47.943273333299999, -63.987418333299999, 31.142809645467871, 3.09
1562185382.353, 47.943273333299999, -63.987418333299999, 31.476752578996233, 3.129
1562185384.43494, 47.943273333299999, -63.987418333299999, 31.822618458539374, 3.165
1562185386.4473, 47.943273333299999, -63.987418333299999, 32.156925188746911, 3.207
1562185388.45673, 47.943273333299999, -63.987418333299999, 32.490745179989794, 3.235
1562185390.46869, 47.943273333299999, -63.987418333299999, 32.824985488092707, 3.273
1562185392.47812, 47.943273333299999, -63.987418333299999, 33.158805518943282, 3.297
1562185394.49033, 47.943273333299999, -63.987418333299999, 33.493087335910623, 3.336
1562185396.49994, 47.943273333299999, -63.987418333299999, 33.826937230963281, 3.357
1562185398.51233, 47.943273333299999, -63.987418333299999, 34.161248991348096, 3.402
1562185400.52179, 47.943273333299999, -63.987418333299999, 34.468018697054312, 3.424
1562185402.53802, 47.943273333299999, -63.987418333299999, 34.76239890808543, 3.472
1562185404.54749, 47.943273333299999, -63.987418333299999, 35.05579214064079, 3.491
1562185406.55942, 47.943273333299999, -63.987418333299999, 35.349544581424247, 3.536
1562185408.56818, 47.943273333299999, -63.987418333299999, 35.642834148691954, 3.556
1562185410.59201, 47.943273333299999, -63.987418333299999, 35.938324009949561, 3.593
1562185412.60184, 47.943273333299999, -63.987418333299999, 36.231769806166554, 3.62
1562185414.61447, 47.943273333299999, -63.987418333299999, 36.525624415391675, 3.648
1562185416.62338, 47.943273333299999, -63.987418333299999, 36.818935878383328, 3.684
1562185418.63705, 47.943273333299999, -63.987418333299999, 37.112942330450871, 3.706
1562185420.646, 47.943273333299999, -63.987418333299999, 37.406259641585017, 3.747
1562185422.65897, 47.943273333299999, -63.987418333299999, 37.700163925210902, 3.764
1562185424.66788, 47.943273333299999, -63.987418333299999, 37.993475388202562, 3.806
1562185426.68082, 47.943273333299999, -63.987418333299999, 38.287375250911204, 3.828
1562185428.6897, 47.943273333299999, -63.987418333299999, 38.580682327795998, 3.861
1562185430.6933, 47.943273333299999, -63.987418333299999, 38.873218528994066, 3.894
1562185432.70154, 47.943273333299999, -63.987418333299999, 39.166432174840558, 3.915
1562185434.72824, 47.943273333299999, -63.987418333299999, 39.462341083355646, 3.955
1562185436.73743, 47.943273333299999, -63.987418333299999, 39.755693448534338, 3.97
1562185438.75345, 47.943273333299999, -63.987418333299999, 40.05004299162777, 4.009
1562185440.76196, 47.943273333299999, -63.987418333299999, 40.343296077625681, 4.03
1562185442.77646, 47.943273333299999, -63.987418333299999, 40.637423704597957, 4.057
1562185444.78558, 47.943273333299999, -63.987418333299999, 40.930765835527303, 4.092
1562185446.79529, 47.943273333299999, -63.987418333299999, 41.220715472741453, 4.11
1562185448.81384, 47.943273333299999, -63.987418333299999, 41.501727144535728, 4.15
1562185450.82669, 47.943273333299999, -63.987418333299999, 41.78194531064689, 4.167
1562185452.84875, 47.943273333299999, -63.987418333299999, 42.06344565873566, 4.205
1562185454.86124, 47.943273333299999, -63.987418333299999, 42.343613672712003, 4.231
1562185456.87518, 47.943273333299999, -63.987418333299999, 42.623983589690404, 4.263
1562185458.88177, 47.943273333299999, -63.987418333299999, 42.903330250438223, 4.294
1562185460.89407, 47.943273333299999, -63.987418333299999, 43.18347184409734, 4.319
1562185462.90775, 47.943273333299999, -63.987418333299999, 43.463805549309306, 4.352
1562185464.93015, 47.943273333299999, -63.987418333299999, 43.745353228267867, 4.373
1562185466.9411, 47.943273333299999, -63.987418333299999, 44.025306859293302, 4.413
1562185468.95081, 47.943273333299999, -63.987418333299999, 44.30508789528163, 4.431
1562185470.96347, 47.943273333299999, -63.987418333299999, 44.585279607884218, 4.471
1562185472.97342, 47.943273333299999, -63.987418333299999, 44.865094034373953, 4.489
1562185474.98654, 47.943273333299999, -63.987418333299999, 45.145349806288394, 4.525
1562185476.99603, 47.943273333299999, -63.987418333299999, 45.425100206657632, 4.553
1562185479.00854, 47.943273333299999, -63.987418333299999, 45.705271008707648, 4.572
1562185481.01843, 47.943273333299999, -63.987418333299999, 45.985077104167708, 4.612
1562185483.03168, 47.943273333299999, -63.987418333299999, 46.265350965369691, 4.635
1562185485.0451, 47.943273333299999, -63.987418333299999, 46.545648458815215, 4.662
1562185487.05994, 47.943273333299999, -63.987418333299999, 46.826143673152295, 4.698
1562185488.16379, 47.943273333299999, -63.987418333299999, 46.979815722307265, 4.716
1562185490.18683, 47.943273333299999, -63.987418333299999, 47.261452486858055, 4.756
1562185492.21249, 47.943273333299999, -63.987418333299999, 47.543453991190162, 4.778
1562185494.23148, 47.943273333299999, -63.987418333299999, 47.827532296307467, 4.805
1562185496.2464, 47.943273333299999, -63.987418333299999, 48.114124358229809, 4.842
1562185498.26562, 47.943273333299999, -63.987418333299999, 48.401327979289718, 4.86
1562185500.27991, 47.943273333299999, -63.987418333299999, 48.687830413242636, 4.902
1562185502.28946, 47.943273333299999, -63.987418333299999, 48.973658619693438, 4.919
1562185504.30548, 47.943273333299999, -63.987418333299999, 49.260407115146975, 4.959
1562185506.31235, 47.943273333299999, -63.987418333299999, 49.545854156869694, 4.977
1562185508.31848, 47.943273333299999, -63.987418333299999, 49.831195937443312, 5.015
1562185510.3251, 47.943273333299999, -63.987418333299999, 50.116607406052168, 5.038
1562185512.34451, 47.943273333299999, -63.987418333299999, 50.403838088451316, 5.069
1562185514.43353, 47.943273333299999, -63.987418333299999, 50.700969728131163, 5.097
1562185516.44266, 47.943273333299999, -63.987418333299999, 50.9867382165138, 5.122
1562185518.45547, 47.943273333299999, -63.987418333299999, 51.273030128168507, 5.156
1562185520.46436, 47.943273333299999, -63.987418333299999, 51.558764467718298, 5.177
1562185522.47681, 47.943273333299999, -63.987418333299999, 51.845005173079457, 5.215
1562185524.49063, 47.943273333299999, -63.987418333299999, 52.1314407336477, 5.233
1562185526.5032, 47.943273333299999, -63.987418333299999, 52.41769853038101, 5.273
1562185528.51288, 47.943273333299999, -63.987418333299999, 52.703545252484972, 5.295
1562185530.52539, 47.943273333299999, -63.987418333299999, 52.989794469620755, 5.323
1562185532.53476, 47.943273333299999, -63.987418333299999, 53.275597106836244, 5.355
1562185534.54742, 47.943273333299999, -63.987418333299999, 53.561867688187213, 5.376
1562185536.55716, 47.943273333299999, -63.987418333299999, 53.847722922065799, 5.414
1562185538.56979, 47.943273333299999, -63.987418333299999, 54.133989230573732, 5.431
1562185540.57892, 47.943273333299999, -63.987418333299999, 54.417724281379307, 5.471
1562185542.59192, 47.943273333299999, -63.987418333299999, 54.693468650705007, 5.495
1562185544.60083, 47.943273333299999, -63.987418333299999, 54.968652787430884, 5.517
1562185546.61481, 47.943273333299999, -63.987418333299999, 55.244531385273852, 5.556
1562185548.62369, 47.943273333299999, -63.987418333299999, 55.519711374305885, 5.574
1562185550.63763, 47.943273333299999, -63.987418333299999, 55.795584518094742, 5.612
1562185552.64597, 47.943273333299999, -63.987418333299999, 56.070690567135756, 5.632
1562185554.65988, 47.943273333299999, -63.987418333299999, 56.34655956323077, 5.667
1562185556.66888, 47.943273333299999, -63.987418333299999, 56.621756012402152, 5.69
1562185558.68256, 47.943273333299999, -63.987418333299999, 56.897593525214774, 5.721
1562185560.69116, 47.943273333299999, -63.987418333299999, 57.17273517257302, 5.747
1562185562.70502, 47.943273333299999, -63.987418333299999, 57.448597342935649, 5.773
1562185564.71396, 47.943273333299999, -63.987418333299999, 57.723785562037357, 5.803
1562185566.72791, 47.943273333299999, -63.987418333299999, 57.999660077504487, 5.826
1562185568.73682, 47.943273333299999, -63.987418333299999, 58.27484418157136, 5.859
1562185570.7507, 47.943273333299999, -63.987418333299999, 58.55070909529055, 5.88
1562185572.75974, 47.943273333299999, -63.987418333299999, 58.825911031175046, 5.918
1562185574.77625, 47.943273333299999, -63.987418333299999, 59.102136173737414, 5.935
1562185576.78262, 47.943273333299999, -63.987418333299999, 59.376972361406601, 5.975
1562185578.79538, 47.943273333299999, -63.987418333299999, 59.652683875771622, 5.991
1562185580.80499, 47.943273333299999, -63.987418333299999, 59.927963866681978, 6.031
1562185582.81796, 47.943273333299999, -63.987418333299999, 60.203704120972837, 6.051
1562185584.82761, 47.943273333299999, -63.987418333299999, 60.4789895985963, 6.085
1562185586.83975, 47.943273333299999, -63.987418333299999, 60.754616166885064, 6.108
1562185588.85001, 47.943273333299999, -63.987418333299999, 61.053727954418683, 6.135
1562185590.86221, 47.943273333299999, -63.987418333299999, 61.356362476723326, 6.168
1562185592.87268, 47.943273333299999, -63.987418333299999, 61.65873677672495, 6.186
1562185594.88547, 47.943273333299999, -63.987418333299999, 61.96146001199331, 6.224
1562185596.89566, 47.943273333299999, -63.987418333299999, 62.263792214573996, 6.242
1562185598.90396, 47.943273333299999, -63.987418333299999, 62.565840169918083, 6.282
1562185600.9191, 47.943273333299999, -63.987418333299999, 62.868916858575012, 6.302
1562185602.93219, 47.943273333299999, -63.987418333299999, 63.171685203345532, 6.331
1562185604.94507, 47.943273333299999, -63.987418333299999, 63.474421992979408, 6.367
1562185606.95471, 47.943273333299999, -63.987418333299999, 63.776671470900723, 6.386
1562185608.96472, 47.943273333299999, -63.987418333299999, 64.078976600608485, 6.427
1562185610.97852, 47.943273333299999, -63.987418333299999, 64.381851730830078, 6.443
1562185612.98764, 47.943273333299999, -63.987418333299999, 64.684023002213863, 6.484
1562185615.00168, 47.943273333299999, -63.987418333299999, 64.986934241552049, 6.502
1562185617.01022, 47.943273333299999, -63.987418333299999, 65.289018306012721, 6.542
1562185619.02402, 47.943273333299999, -63.987418333299999, 65.591893436234315, 6.563
1562185621.03305, 47.943273333299999, -63.987418333299999, 65.894051189110684, 6.597
1562185623.05963, 47.943273333299999, -63.987418333299999, 66.198848421593382, 6.624
1562185624.15686, 47.943273333299999, -63.987418333299999, 66.363871638419923, 6.654
1562185626.18057, 47.943273333299999, -63.987418333299999, 66.668237210976514, 6.686
1562185628.20584, 47.943273333299999, -63.987418333299999, 66.972837474861919, 6.711
1562185630.22382, 47.943273333299999, -63.987418333299999, 67.276341269465007, 6.746
1562185632.23965, 47.943273333299999, -63.987418333299999, 67.579521731491781, 6.765
1562185634.258, 47.943273333299999, -63.987418333299999, 67.883081177881323, 6.805
1562185636.27301, 47.943273333299999, -63.987418333299999, 68.178625421790883, 6.822
1562185638.29129, 47.943273333299999, -63.987418333299999, 68.474405245164547, 6.86
1562185640.30957, 47.943273333299999, -63.987418333299999, 68.770185068538225, 6.886
1562185642.31888, 47.943273333299999, -63.987418333299999, 69.064650331224613, 6.917
1562185644.34274, 47.943273333299999, -63.987418333299999, 69.361247898486994, 6.95
1562185646.4317, 47.943273333299999, -63.987418333299999, 69.667385892645157, 6.974
1562185648.44064, 47.943273333299999, -63.987418333299999, 69.961796927912502, 7.016
1562185650.45245, 47.943273333299999, -63.987418333299999, 70.256628575080896, 7.038
1562185652.461, 47.943273333299999, -63.987418333299999, 70.550982447940029, 7.071
1562185654.47275, 47.943273333299999, -63.987418333299999, 70.845805290140916, 7.101
1562185656.48218, 47.943273333299999, -63.987418333299999, 71.140288162762346, 7.128
1562185658.49396, 47.943273333299999, -63.987418333299999, 71.435115372506644, 7.16
1562185660.50323, 47.943273333299999, -63.987418333299999, 71.729574800155035, 7.184
1562185662.51511, 47.943273333299999, -63.987418333299999, 72.024416684845193, 7.221
1562185664.52209, 47.943273333299999, -63.987418333299999, 72.31854047551721, 7.24
1562185666.5351, 47.943273333299999, -63.987418333299999, 72.613547977453692, 7.279
1562185668.5433, 47.943273333299999, -63.987418333299999, 72.907850557882952, 7.299
1562185670.55615, 47.943273333299999, -63.987418333299999, 73.202834614846367, 7.337
1562185672.56314, 47.943273333299999, -63.987418333299999, 73.496959873012969, 7.354
1562185674.57837, 47.943273333299999, -63.987418333299999, 73.792292739463704, 7.394
1562185676.58725, 47.943273333299999, -63.987418333299999, 74.086694969763528, 7.411
1562185678.60068, 47.943273333299999, -63.987418333299999, 74.381764036591974, 7.45
1562185680.60886, 47.943273333299999, -63.987418333299999, 74.676063682032066, 7.466
1562185682.634, 47.943273333299999, -63.987418333299999, 74.97268819059137, 7.505
1562185684.64221, 47.943273333299999, -63.987418333299999, 75.266758808626477, 7.526
1562185686.64572, 47.943273333299999, -63.987418333299999, 75.560141193906105, 7.558
1562185688.65402, 47.943273333299999, -63.987418333299999, 75.85422500891687, 7.585
1562185690.66718, 47.943273333299999, -63.987418333299999, 76.149020483060582, 7.614
1562185692.67499, 47.943273333299999, -63.987418333299999, 76.443032517695713, 7.645
1562185694.68878, 47.943273333299999, -63.987418333299999, 76.737920265931265, 7.669
1562185696.69629, 47.943273333299999, -63.987418333299999, 77.031888380472736, 7.705
1562185698.70749, 47.943273333299999, -63.987418333299999, 77.326396837851732, 7.724
1562185700.71542, 47.943273333299999, -63.987418333299999, 77.620426468454426, 7.763
1562185702.72818, 47.943273333299999, -63.987418333299999, 77.915163359198161, 7.781
1562185704.73697, 47.943273333299999, -63.987418333299999, 78.209318919671958, 7.821
1562185706.74954, 47.943273333299999, -63.987418333299999, 78.504028019958966, 7.838
1562185708.75891, 47.943273333299999, -63.987418333299999, 78.798268487958836, 7.877
1562185710.77048, 47.943273333299999, -63.987418333299999, 79.092831129745917, 7.902
1562185712.77878, 47.943273333299999, -63.987418333299999, 79.386914944756683, 7.929
1562185714.79041, 47.943273333299999, -63.987418333299999, 79.68148638452756, 7.966
1562185716.7988, 47.943273333299999, -63.987418333299999, 79.97558336160138, 7.987
1562185718.80914, 47.943273333299999, -63.987418333299999, 80.269965889109272, 8.024
1562185720.81619, 47.943273333299999, -63.987418333299999, 80.563866657179616, 8.046
1562185722.83414, 47.943273333299999, -63.987418333299999, 80.859363561054465, 8.085
1562185724.84421, 47.943273333299999, -63.987418333299999, 81.153706532547972, 8.104
1562185726.85413, 47.943273333299999, -63.987418333299999, 81.448027578907258, 8.145
1562185728.86267, 47.943273333299999, -63.987418333299999, 81.744610393323484, 8.163
1562185730.87537, 47.943273333299999, -63.987418333299999, 82.047043569126686, 8.204
1562185732.88205, 47.943273333299999, -63.987418333299999, 82.348572154802156, 8.222
1562185734.8952, 47.943273333299999, -63.987418333299999, 82.651072933043807, 8.262
1562185736.90082, 47.943273333299999, -63.987418333299999, 82.952442239206107, 8.283
1562185738.91406, 47.943273333299999, -63.987418333299999, 83.254956559430653, 8.322
1562185740.92249, 47.943273333299999, -63.987418333299999, 83.556748067361468, 8.343
1562185742.93515, 47.943273333299999, -63.987418333299999, 83.859175224505606, 8.382
1562185744.94305, 47.943273333299999, -63.987418333299999, 84.16088712850518, 8.402
1562185746.95538, 47.943273333299999, -63.987418333299999, 84.463264703362697, 8.447
1562185748.96442, 47.943273333299999, -63.987418333299999, 84.765147924193599, 8.476
1562185750.98376, 47.943273333299999, -63.987418333299999, 85.068578836038654, 8.534
1562185752.99841, 47.943273333299999, -63.987418333299999, 85.371304991567172, 8.587
1562185755.01196, 47.943273333299999, -63.987418333299999, 85.673865884748793, 8.638
1562185757.02002, 47.943273333299999, -63.987418333299999, 85.975601827559288, 8.706
1562185759.03299, 47.943273333299999, -63.987418333299999, 86.278075557660486, 8.751
1562185761.0553, 47.943273333299999, -63.987418333299999, 86.581952745910343, 8.793
1562185763.06631, 47.943273333299999, -63.987418333299999, 86.884131955796093, 8.835
1562185764.16528, 47.943273333299999, -63.987418333299999, 87.049265868808419, 8.848
1562185766.17737, 47.943273333299999, -63.987418333299999, 87.3516073675369, 8.881
1562185768.20529, 47.943273333299999, -63.987418333299999, 87.656327526309724, 8.886
1562185770.22287, 47.943273333299999, -63.987418333299999, 87.959493975409316, 8.909
1562185772.2377, 47.943273333299999, -63.987418333299999, 88.262247179078301, 8.913
1562185774.25604, 47.943273333299999, -63.987418333299999, 88.565527839398769, 8.928
1562185776.27002, 47.943273333299999, -63.987418333299999, 88.787195446889655, 8.932
1562185778.29227, 47.943273333299999, -63.987418333299999, 88.269768437971052, 8.937
1562185780.30948, 47.943273333299999, -63.987418333299999, 87.753630980870497, 8.934
1562185782.32016, 47.943273333299999, -63.987418333299999, 87.239164347117494, 8.933
1562185784.33673, 47.943273333299999, -63.987418333299999, 86.723190623262582, 8.919
1562185786.34268, 47.943273333299999, -63.987418333299999, 86.209934236849477, 8.908
1562185788.36038, 47.943273333299999, -63.987418333299999, 85.693671417670004, 8.886
1562185816.61301, 47.943273333299999, -63.987418333299999, 78.464755958363824, 8.105
1562185818.63379, 47.943273333299999, -63.987418333299999, 77.947705035681963, 8.005
1562185820.65036, 47.943273333299999, -63.987418333299999, 77.431731311827036, 7.934
1562185822.66733, 47.943273333299999, -63.987418333299999, 76.915655285195314, 7.848